Saint Thomas, VI

3:44 PM AST on August 28, 2016 (GMT -0400)
King

Weather History for TIST - January, 2012

Change the Weather History Date:

Wednesday, January 4, 2012

  Actual Average Record
Temperature  
Mean Temperature 73 °F 79 °F  
Max Temperature 78 °F 85 °F 92 °F (1981)
Min Temperature 68 °F 73 °F 64 °F (1955)
Degree Days  
Heating Degree Days 0 0  
Month to date heating degree days 0 0  
Since 1 July heating degree days 0 0  
Cooling Degree Days 8 14  
Month to date cooling degree days 45 56  
Year to date cooling degree days 45 56  
Growing Degree Days 22 (Base 50)    
Moisture  
Dew Point 71 °F    
Average Humidity 91    
Maximum Humidity 100    
Minimum Humidity 82    
Precipitation  
Precipitation 0.18 in 0.09 in 0.23 in (1994)
Month to date precipitation 0.28 0.35  
Year to date precipitation 0.28 0.35  
Snow  
Snow 0.00 in 0.00 in - ()
Month to date snowfall 0.0 0.0  
Since 1 July snowfall 0.0 0.0  
Snow Depth 0.00 in    
Sea Level Pressure  
Sea Level Pressure 30.04 in    
Wind  
Wind Speed 6 mph (North)    
Max Wind Speed 21 mph    
Max Gust Speed 29 mph    
Visibility 9 miles    
Events Rain    
T = Trace of Precipitation, MM = Missing Value Source: NWS Daily Summary

Daily Weather History Graph

Daily Weather History Graph

Search for Another Location

Airport or City:

Trip Planner

Search our weather history database for the weather conditions in past years. The results will help you decide how hot, cold, wet, or windy it might be!

Date:

Astronomy

Jan. 04, 2012 Rise Set
Actual Time 6:52 AM AST 5:56 PM AST
Civil Twilight 6:29 AM AST 6:20 PM AST
Nautical Twilight 6:01 AM AST 6:47 PM AST
Astronomical Twilight 5:35 AM AST 7:14 PM AST
Moon 2:12 PM AST (1/4) 2:44 AM AST (1/4)
Length of Visible Light 11h 51m
Length of Day
11h 04m
Waxing Gibbous, 80% of the Moon is Illuminated
Jan 4
Waxing Gibbous
Jan 9
Full
Jan 16
Last Quarter
Jan 23
New
Jan 31
First Quarter

Hourly Weather History & Observations

Time (AST) Temp. Dew Point Humidity Pressure Visibility Wind Dir Wind Speed Gust Speed Precip Events Conditions
12:53 AM 72.0 °F 71.1 °F 97% 30.05 in 10.0 mi NE 3.5 mph - N/A   Mostly Cloudy
1:53 AM 73.0 °F 71.1 °F 93% 30.03 in 10.0 mi Calm Calm - N/A   Mostly Cloudy
2:53 AM 73.9 °F 72.0 °F 93% 30.01 in 10.0 mi East 3.5 mph - N/A   Partly Cloudy
3:53 AM 73.9 °F 71.1 °F 91% 30.01 in 10.0 mi Calm Calm - N/A   Mostly Cloudy
4:33 AM 73.4 °F 71.6 °F 94% 30.01 in 10.0 mi Calm Calm - N/A   Overcast
4:53 AM 73.9 °F 72.0 °F 93% 30.01 in 10.0 mi Calm Calm - N/A   Overcast
5:08 AM 73.4 °F 71.6 °F 94% 30.01 in 10.0 mi NE 3.5 mph - N/A   Overcast
5:25 AM 73.4 °F 71.6 °F 94% 30.01 in 10.0 mi Calm Calm - N/A   Overcast
5:39 AM 73.4 °F 71.6 °F 94% 30.01 in 10.0 mi Calm Calm - N/A   Mostly Cloudy
5:53 AM 73.0 °F 71.1 °F 93% 30.02 in 10.0 mi North 4.6 mph - N/A   Scattered Clouds
6:53 AM 73.9 °F 72.0 °F 93% 30.04 in 10.0 mi North 4.6 mph - N/A   Overcast
7:53 AM 75.0 °F 71.1 °F 87% 30.07 in 10.0 mi Calm Calm - N/A   Overcast
8:29 AM 75.2 °F 71.6 °F 89% 30.08 in 10.0 mi SW 6.9 mph - N/A   Overcast
8:53 AM 75.0 °F 72.0 °F 90% 30.09 in 10.0 mi SW 5.8 mph - N/A   Overcast
9:53 AM 73.9 °F 72.0 °F 93% 30.10 in 8.0 mi WSW 6.9 mph - 0.00 in Rain Light Rain
10:08 AM 75.2 °F 73.4 °F 94% 30.09 in 10.0 mi West 5.8 mph - 0.00 in Rain Light Rain
10:53 AM 72.0 °F 71.1 °F 97% 30.09 in 3.0 mi ENE 9.2 mph - 0.03 in Rain Rain
11:01 AM 71.6 °F 71.6 °F 100% 30.08 in 2.5 mi North 4.6 mph - 0.03 in Rain Heavy Rain
11:09 AM 71.6 °F 71.6 °F 100% 30.08 in 5.0 mi Calm Calm - 0.03 in Rain Light Rain
11:53 AM 73.9 °F 72.0 °F 93% 30.06 in 10.0 mi Calm Calm - 0.04 in   Overcast
12:53 PM 75.0 °F 70.0 °F 84% 30.03 in 10.0 mi Calm Calm - N/A   Overcast
1:53 PM 73.0 °F 72.0 °F 96% 30.01 in 10.0 mi NW 13.8 mph 20.7 mph N/A   Overcast
2:02 PM 73.4 °F 71.6 °F 94% 30.00 in 10.0 mi NNW 13.8 mph - N/A   Overcast
2:53 PM 72.0 °F 72.0 °F 100% 30.00 in 7.0 mi NNW 12.7 mph - 0.01 in Rain Light Rain
3:30 PM 69.8 °F 68.0 °F 94% 30.01 in 1.8 mi NNE 19.6 mph 24.2 mph 0.06 in Rain Heavy Rain
3:43 PM 68.0 °F 66.2 °F 94% 30.01 in 3.0 mi North 10.4 mph - 0.10 in Rain Light Rain
3:53 PM 69.1 °F 66.0 °F 90% 30.01 in 10.0 mi North 12.7 mph - 0.10 in Rain Light Rain
4:53 PM 72.0 °F 69.1 °F 91% 30.00 in 10.0 mi Calm Calm - 0.00 in   Overcast
5:53 PM 73.0 °F 70.0 °F 90% 30.00 in 10.0 mi North 12.7 mph - N/A   Partly Cloudy
6:53 PM 73.0 °F 71.1 °F 93% 30.02 in 10.0 mi ENE 8.1 mph - N/A   Overcast
7:53 PM 73.0 °F 71.1 °F 93% 30.04 in 10.0 mi NNE 11.5 mph - N/A   Overcast
8:53 PM 73.0 °F 72.0 °F 96% 30.05 in 10.0 mi NNE 5.8 mph - N/A   Partly Cloudy
9:53 PM 73.0 °F 71.1 °F 93% 30.05 in 10.0 mi Variable 6.9 mph - N/A   Partly Cloudy
10:53 PM 73.0 °F 71.1 °F 93% 30.04 in 10.0 mi NNE 6.9 mph - N/A   Clear
11:53 PM 73.0 °F 71.1 °F 93% 30.04 in 10.0 mi NNE 6.9 mph - N/A   Clear